Location: Strawberry
(45.6646°N, 111.9596°W)
Time: 23:58:35
(UTC+00:00)

Courier 1B Rocket - Pass Details

Date: 10 October 2022
Orbit: 920 x 1202 km, 28.3° (Epoch: 03 December)

Event Time Altitude Azimuth Distance (km) Brightness Sun altitude
Rises 01:57:17 0° 243° (WSW) 3,902 9.3 -12.1°
Reaches altitude 10° 02:01:09 10° 224° (SW) 2,886 8.1 -12.8°
Maximum altitude 02:05:27 17° 186° (S) 2,331 7.0 -13.5°
Drops below altitude 10° 02:09:34 10° 148° (SSE) 2,757 7.0 -14.2°
Enters shadow 02:10:37 - 141° (SE) 2,984 7.1 -14.4°
Sets 02:13:09 0° 129° (SE) 3,655 - -14.9°
